Archiv-/Tagesdaten

--Timestamp---	Temp	Chill	HIndex	Humid	Dewpt	 Wind 	HiWind	WindDir	Rain 	Barom	Solar	 ET  	 UV 
--------------	----	-----	------	-----	-----	------	------	-------	-----	-----	-----	-----	----
20100914 00:00	10.8	10.8	10.8	91	9.4	3	6	248	0.0	1027.4	0	0.000	0.0
20100914 00:05	10.8	10.8	10.8	92	9.6	2	5	248	0.0	1027.3	0	0.000	0.0
20100914 00:10	10.8	10.8	10.8	92	9.6	2	5	248	0.0	1027.3	0	0.000	0.0
20100914 00:15	10.8	10.8	10.8	92	9.6	0	5	248	0.0	1027.3	0	0.000	0.0
20100914 00:20	10.8	10.8	10.8	92	9.6	2	5	248	0.0	1027.3	0	0.000	0.0
20100914 00:25	10.8	10.8	10.8	92	9.5	2	5	248	0.0	1027.3	0	0.000	0.0
20100914 00:30	10.8	10.8	10.8	92	9.5	2	5	248	0.0	1027.3	0	0.000	0.0
20100914 00:35	10.8	10.8	10.8	92	9.5	3	6	248	0.0	1027.2	0	0.000	0.0
20100914 00:40	10.8	10.8	10.8	92	9.5	2	6	248	0.0	1027.1	0	0.000	0.0
20100914 00:45	10.8	10.8	10.8	92	9.5	2	6	248	0.0	1027.0	0	0.000	0.0
20100914 00:50	10.8	10.8	10.8	92	9.5	2	5	248	0.0	1027.0	0	0.000	0.0
20100914 00:55	10.7	10.7	10.7	91	9.3	2	6	248	0.0	1026.9	0	0.000	0.0
20100914 01:00	10.7	10.7	10.7	92	9.5	2	5	248	0.0	1026.9	0	0.000	0.0
20100914 01:05	10.7	10.7	10.7	91	9.3	3	8	248	0.0	1027.0	0	0.000	0.0
20100914 01:10	10.7	10.7	10.7	91	9.3	3	6	248	0.0	1026.9	0	0.000	0.0
20100914 01:15	10.7	10.7	10.7	92	9.4	2	5	248	0.0	1026.9	0	0.000	0.0
20100914 01:20	10.7	10.7	10.7	92	9.4	3	8	248	0.0	1026.9	0	0.000	0.0
20100914 01:25	10.6	10.6	10.6	92	9.4	3	6	248	0.0	1026.9	0	0.000	0.0
20100914 01:30	10.6	10.6	10.6	92	9.4	3	6	248	0.0	1026.9	0	0.000	0.0
20100914 01:35	10.6	10.6	10.6	92	9.3	2	6	248	0.0	1026.9	0	0.000	0.0
20100914 01:40	10.5	10.5	10.5	92	9.3	2	5	248	0.0	1026.8	0	0.000	0.0
20100914 01:45	10.4	10.4	10.4	92	9.2	2	6	248	0.0	1026.7	0	0.000	0.0
20100914 01:50	10.3	10.3	10.3	91	8.9	2	6	248	0.0	1026.8	0	0.000	0.0
20100914 01:55	10.3	10.3	10.3	91	8.9	2	6	248	0.0	1026.7	0	0.000	0.0
20100914 02:00	10.2	10.2	10.2	91	8.8	0	5	248	0.0	1026.7	0	0.000	0.0
20100914 02:05	10.1	10.1	10.1	92	8.9	2	6	248	0.0	1026.8	0	0.000	0.0
20100914 02:10	10.1	10.1	10.1	91	8.7	3	10	248	0.0	1026.8	0	0.000	0.0
20100914 02:15	10.0	10.0	10.0	92	8.8	2	5	248	0.0	1026.7	0	0.000	0.0
20100914 02:20	9.9	9.9	9.9	92	8.7	2	6	248	0.0	1026.8	0	0.000	0.0
20100914 02:25	9.9	9.9	9.9	92	8.6	2	6	248	0.0	1026.8	0	0.000	0.0
20100914 02:30	9.8	9.8	9.8	92	8.6	3	8	248	0.0	1026.8	0	0.000	0.0
20100914 02:35	9.8	9.8	9.8	92	8.5	3	8	248	0.0	1026.8	0	0.000	0.0
20100914 02:40	9.7	9.7	9.7	92	8.4	3	6	248	0.0	1026.8	0	0.000	0.0
20100914 02:45	9.6	9.6	9.6	92	8.3	3	6	248	0.0	1026.9	0	0.000	0.0
20100914 02:50	9.5	9.5	9.5	92	8.3	3	6	248	0.0	1026.9	0	0.000	0.0
20100914 02:55	9.4	9.4	9.4	92	8.2	3	6	248	0.0	1026.9	0	0.000	0.0
20100914 03:00	9.3	9.3	9.3	92	8.1	2	5	248	0.0	1026.9	0	0.000	0.0
20100914 03:05	9.3	9.3	9.3	92	8.0	2	5	248	0.0	1026.9	0	0.000	0.0
20100914 03:10	9.2	9.2	9.2	92	7.9	2	5	248	0.0	1026.8	0	0.000	0.0
20100914 03:15	9.1	9.1	9.1	92	7.9	0	3	248	0.0	1027.0	0	0.000	0.0
20100914 03:20	9.1	9.1	9.1	92	7.8	0	5	248	0.0	1026.9	0	0.000	0.0
20100914 03:25	9.0	9.0	9.0	92	7.8	0	2	248	0.0	1026.9	0	0.000	0.0
20100914 03:30	8.9	8.9	8.9	92	7.7	0	2	248	0.0	1026.9	0	0.000	0.0
20100914 03:35	8.9	8.9	8.9	92	7.7	0	3	248	0.0	1026.8	0	0.000	0.0
20100914 03:40	8.8	8.8	8.8	92	7.6	2	6	248	0.0	1026.8	0	0.000	0.0
20100914 03:45	8.8	8.8	8.8	92	7.5	0	5	248	0.0	1026.7	0	0.000	0.0
20100914 03:50	8.7	8.7	8.7	92	7.5	2	8	248	0.0	1026.6	0	0.000	0.0
20100914 03:55	8.7	8.7	8.7	92	7.5	2	6	248	0.0	1026.5	0	0.000	0.0
20100914 04:00	8.7	8.7	8.7	92	7.4	3	8	248	0.0	1026.4	0	0.000	0.0
20100914 04:05	8.7	8.7	8.7	92	7.4	3	6	248	0.0	1026.4	0	0.000	0.0
20100914 04:10	8.6	8.6	8.6	92	7.4	3	5	248	0.0	1026.4	0	0.000	0.0
20100914 04:15	8.6	8.6	8.6	92	7.4	2	6	248	0.0	1026.3	0	0.000	0.0
20100914 04:20	8.6	8.6	8.6	92	7.3	3	6	248	0.0	1026.4	0	0.000	0.0
20100914 04:25	8.5	8.5	8.5	92	7.3	2	6	248	0.0	1026.4	0	0.000	0.0
20100914 04:30	8.4	8.4	8.4	92	7.2	0	2	248	0.0	1026.3	0	0.000	0.0
20100914 04:35	8.3	8.3	8.3	92	7.1	0	2	248	0.0	1026.3	0	0.000	0.0
20100914 04:40	8.3	8.3	8.3	92	7.1	0	3	248	0.0	1026.2	0	0.000	0.0
20100914 04:45	8.2	8.2	8.2	92	6.9	2	5	248	0.0	1026.2	0	0.000	0.0
20100914 04:50	8.1	8.1	8.1	92	6.9	0	3	248	0.0	1026.2	0	0.000	0.0
20100914 04:55	8.1	8.1	8.1	92	6.8	2	5	248	0.0	1026.3	0	0.000	0.0
20100914 05:00	8.0	8.0	8.0	92	6.8	3	6	248	0.0	1026.3	0	0.000	0.0
20100914 05:05	7.9	7.9	7.9	92	6.7	3	6	248	0.0	1026.3	0	0.000	0.0
20100914 05:10	7.9	7.9	7.9	92	6.7	3	6	248	0.0	1026.3	0	0.000	0.0
20100914 05:15	7.8	7.8	7.8	92	6.6	3	6	248	0.0	1026.2	0	0.000	0.0
20100914 05:20	7.8	7.8	7.8	92	6.6	3	6	248	0.0	1026.2	0	0.000	0.0
20100914 05:25	7.8	7.8	7.8	92	6.6	3	8	248	0.0	1026.2	0	0.000	0.0
20100914 05:30	7.7	7.7	7.7	92	6.5	2	5	248	0.0	1026.2	0	0.000	0.0
20100914 05:35	7.7	7.7	7.7	92	6.5	3	6	248	0.0	1026.3	0	0.000	0.0
20100914 05:40	7.7	7.7	7.7	92	6.4	3	6	248	0.0	1026.2	0	0.000	0.0
20100914 05:45	7.7	7.7	7.7	92	6.4	2	5	248	0.0	1026.2	0	0.000	0.0
20100914 05:50	7.7	7.7	7.7	92	6.4	3	6	248	0.0	1026.1	0	0.000	0.0
20100914 05:55	7.6	7.6	7.6	92	6.4	3	6	248	0.0	1026.1	0	0.000	0.0
20100914 06:00	7.6	7.6	7.6	92	6.4	3	6	248	0.0	1026.2	0	0.000	0.0
20100914 06:05	7.6	7.6	7.6	92	6.3	3	6	248	0.0	1026.2	0	0.000	0.0
20100914 06:10	7.6	7.6	7.6	92	6.3	3	6	248	0.0	1026.3	0	0.000	0.0
20100914 06:15	7.5	7.5	7.5	92	6.3	2	8	248	0.0	1026.3	0	0.000	0.0
20100914 06:20	7.4	7.4	7.4	92	6.2	3	8	248	0.0	1026.3	0	0.000	0.0
20100914 06:25	7.4	7.4	7.4	92	6.2	5	8	248	0.0	1026.5	0	0.000	0.0
20100914 06:30	7.4	7.4	7.4	92	6.2	5	8	248	0.0	1026.4	0	0.000	0.0
20100914 06:35	7.4	7.4	7.4	93	6.3	5	10	248	0.0	1026.4	0	0.000	0.0
20100914 06:40	7.4	7.4	7.4	93	6.3	3	10	248	0.0	1026.3	0	0.000	0.0
20100914 06:45	7.4	7.4	7.4	92	6.2	3	8	248	0.0	1026.3	0	0.000	0.0
20100914 06:50	7.4	7.4	7.4	92	6.2	2	6	248	0.0	1026.3	4	0.000	0.0
20100914 06:55	7.4	7.4	7.4	93	6.4	3	6	248	0.0	1026.2	5	0.000	0.0
20100914 07:00	7.5	7.5	7.5	93	6.4	2	6	248	0.0	1026.1	7	0.000	0.0
20100914 07:05	7.6	7.6	7.6	93	6.5	3	8	248	0.0	1026.1	12	0.000	0.0
20100914 07:10	7.6	7.6	7.6	93	6.5	3	8	248	0.0	1026.0	15	0.000	0.0
20100914 07:15	7.6	7.6	7.6	93	6.6	3	8	248	0.0	1026.1	17	0.000	0.0
20100914 07:20	7.7	6.7	7.7	92	6.4	6	10	248	0.0	1026.1	24	0.000	0.0
20100914 07:25	7.7	6.7	7.7	92	6.5	6	10	248	0.0	1026.2	30	0.000	0.0
20100914 07:30	7.8	7.8	7.8	93	6.7	5	8	248	0.0	1026.1	35	0.000	0.0
20100914 07:35	7.8	7.8	7.8	93	6.7	3	8	248	0.0	1026.2	39	0.000	0.0
20100914 07:40	7.8	7.8	7.8	92	6.6	3	8	248	0.0	1026.2	40	0.000	0.0
20100914 07:45	7.9	7.9	7.9	92	6.7	3	6	270	0.0	1026.2	39	0.000	0.0
20100914 07:50	7.9	7.9	7.9	92	6.7	3	6	270	0.0	1026.1	39	0.000	0.0
20100914 07:55	8.0	8.0	8.0	92	6.8	3	8	270	0.0	1026.2	45	0.000	0.0
20100914 08:00	8.1	8.1	8.1	92	6.8	3	8	270	0.0	1026.2	46	0.025	0.0
20100914 08:05	8.2	8.2	8.2	92	6.9	2	6	270	0.0	1026.1	45	0.000	0.0
20100914 08:10	8.2	8.2	8.2	92	7.0	2	6	270	0.0	1026.0	46	0.000	0.0
20100914 08:15	8.3	8.3	8.3	92	7.1	3	6	270	0.0	1026.1	44	0.000	0.0
20100914 08:20	8.3	8.3	8.3	92	7.1	3	6	270	0.0	1026.1	46	0.000	0.0
20100914 08:25	8.3	8.3	8.3	92	7.1	5	6	270	0.0	1026.2	47	0.000	0.0
20100914 08:30	8.4	8.4	8.4	92	7.2	5	6	22	0.0	1026.2	49	0.000	0.0
20100914 08:35	8.4	8.4	8.4	92	7.2	3	6	292	0.0	1026.2	54	0.000	0.0
20100914 08:40	8.5	8.5	8.5	92	7.3	3	6	248	0.0	1026.2	59	0.000	0.5
20100914 08:45	8.6	7.7	8.6	92	7.3	6	10	202	0.0	1026.0	59	0.000	0.5
20100914 08:50	8.7	8.7	8.7	92	7.5	3	8	202	0.0	1026.0	58	0.000	0.5
20100914 08:55	8.8	8.8	8.8	92	7.6	5	8	202	0.0	1026.0	60	0.000	0.6
20100914 09:00	9.0	8.2	9.0	92	7.8	6	11	202	0.0	1026.1	60	0.025	0.7
20100914 09:05	9.1	9.1	9.1	92	7.9	5	10	202	0.0	1026.1	62	0.000	0.7
20100914 09:10	9.3	8.6	9.3	92	8.1	6	8	202	0.0	1026.2	65	0.000	0.8
20100914 09:15	9.6	9.6	9.6	92	8.3	2	6	202	0.0	1026.2	70	0.000	0.9
20100914 09:20	9.8	9.8	9.8	92	8.5	5	10	202	0.0	1026.0	79	0.000	0.9
20100914 09:25	10.0	10.0	10.0	91	8.6	6	10	225	0.0	1026.0	90	0.000	1.0
20100914 09:30	10.3	10.3	10.3	91	8.9	5	10	225	0.0	1026.1	105	0.000	1.1
20100914 09:35	10.6	10.6	10.6	91	9.2	5	8	225	0.0	1026.1	125	0.000	1.1
20100914 09:40	10.9	10.9	10.9	90	9.4	3	8	202	0.0	1025.9	154	0.000	1.2
20100914 09:45	11.3	11.3	11.3	89	9.6	5	10	202	0.0	1025.9	171	0.000	1.3
20100914 09:50	11.7	11.7	11.7	88	9.7	5	10	248	0.0	1025.9	187	0.000	1.3
20100914 09:55	11.9	11.9	11.9	86	9.7	5	14	225	0.0	1025.9	198	0.000	1.4
20100914 10:00	12.2	12.2	12.2	85	9.8	6	11	248	0.0	1025.8	205	0.076	1.4
20100914 10:05	12.4	12.4	12.4	84	9.8	3	10	225	0.0	1025.7	212	0.000	1.5
20100914 10:10	12.7	12.7	12.7	83	9.9	6	14	225	0.0	1025.7	223	0.000	1.6
20100914 10:15	12.8	12.8	12.8	81	9.7	6	13	248	0.0	1025.6	235	0.000	1.7
20100914 10:20	13.1	13.1	13.1	81	9.9	5	11	248	0.0	1025.6	233	0.000	1.7
20100914 10:25	13.2	13.2	13.2	81	10.0	8	11	225	0.0	1025.5	232	0.000	1.7
20100914 10:30	13.3	13.3	13.3	80	10.0	6	11	248	0.0	1025.5	238	0.000	1.8
20100914 10:35	13.5	13.5	13.5	80	10.1	6	11	248	0.0	1025.4	247	0.000	1.9
20100914 10:40	13.7	13.7	13.7	78	9.9	8	14	248	0.0	1025.4	251	0.000	1.9
20100914 10:45	13.7	13.7	13.7	77	9.8	8	16	248	0.0	1025.3	253	0.000	2.0
20100914 10:50	13.8	13.8	13.8	75	9.5	10	16	248	0.0	1025.3	247	0.000	1.9
20100914 10:55	13.9	13.9	13.9	77	10.0	5	8	225	0.0	1025.3	229	0.000	1.8
20100914 11:00	14.1	14.1	14.1	75	9.7	8	16	248	0.0	1025.3	216	0.127	1.8
20100914 11:05	14.1	14.1	14.1	74	9.5	6	16	248	0.0	1025.3	212	0.000	1.8
20100914 11:10	14.1	14.1	14.1	73	9.3	10	18	270	0.0	1025.3	210	0.000	1.8
20100914 11:15	14.1	14.1	14.1	74	9.5	8	11	248	0.0	1025.2	222	0.000	2.0
20100914 11:20	14.1	14.1	14.1	73	9.3	8	13	248	0.0	1025.3	241	0.000	2.1
20100914 11:25	14.2	14.2	14.2	74	9.6	8	16	248	0.0	1025.1	252	0.000	2.3
20100914 11:30	14.3	14.3	14.3	73	9.5	8	18	248	0.0	1025.1	286	0.000	2.5
20100914 11:35	14.4	14.4	14.4	74	9.8	6	11	248	0.0	1025.0	309	0.000	2.7
20100914 11:40	14.5	14.5	14.5	72	9.5	8	13	248	0.0	1024.9	329	0.000	2.8
20100914 11:45	14.6	14.6	14.6	74	10.0	8	16	225	0.0	1024.9	349	0.000	3.0
20100914 11:50	14.8	14.8	14.8	73	10.0	8	14	225	0.0	1024.9	339	0.000	3.0
20100914 11:55	14.9	14.9	14.9	71	9.7	8	18	248	0.0	1024.7	292	0.000	2.8
20100914 12:00	15.0	15.0	15.0	70	9.6	11	16	248	0.0	1024.8	358	0.178	3.2
20100914 12:05	15.0	15.0	15.0	70	9.6	11	21	248	0.0	1024.8	409	0.000	3.5
20100914 12:10	15.0	15.0	15.0	70	9.6	6	14	225	0.0	1024.8	366	0.000	3.2
20100914 12:15	15.2	15.2	15.2	72	10.2	6	14	248	0.0	1024.9	358	0.000	3.2
20100914 12:20	15.3	15.3	15.3	69	9.6	10	18	248	0.0	1024.7	398	0.000	3.6
20100914 12:25	15.4	15.4	15.4	71	10.2	8	16	292	0.0	1024.7	536	0.000	4.1
20100914 12:30	15.5	15.5	15.5	70	10.0	10	16	270	0.0	1024.7	501	0.000	4.2
20100914 12:35	15.7	15.7	15.7	69	10.0	8	16	270	0.0	1024.7	491	0.000	4.2
20100914 12:40	15.8	15.8	15.8	67	9.7	8	16	292	0.0	1024.6	425	0.000	3.8
20100914 12:45	15.9	15.9	15.9	69	10.3	6	13	292	0.0	1024.6	384	0.000	3.5
20100914 12:50	16.1	16.1	16.1	68	10.1	8	16	292	0.0	1024.5	378	0.000	3.6
20100914 12:55	16.1	16.1	16.1	67	9.9	8	18	248	0.0	1024.4	367	0.000	3.5
20100914 13:00	16.0	16.0	16.0	65	9.4	11	23	248	0.0	1024.2	394	0.254	3.6
20100914 13:05	15.9	15.9	15.9	66	9.6	11	19	248	0.0	1024.4	426	0.000	3.8
20100914 13:10	16.2	16.2	16.2	67	10.0	8	16	292	0.0	1024.3	421	0.000	3.8
20100914 13:15	16.2	16.2	16.2	64	9.4	10	18	248	0.0	1024.2	402	0.000	3.7
20100914 13:20	16.2	16.2	16.2	62	8.9	8	18	248	0.0	1024.2	406	0.000	3.7
20100914 13:25	16.3	16.3	16.3	64	9.5	8	16	270	0.0	1024.2	395	0.000	3.6
20100914 13:30	16.3	16.3	16.3	64	9.5	6	14	248	0.0	1024.1	351	0.000	3.3
20100914 13:35	16.2	16.2	16.2	62	8.9	11	19	270	0.0	1024.1	306	0.000	2.8
20100914 13:40	16.2	16.2	16.2	64	9.4	6	16	270	0.0	1024.1	247	0.000	2.3
20100914 13:45	16.2	16.2	16.2	63	9.1	11	24	270	0.0	1024.0	196	0.000	1.9
20100914 13:50	16.0	16.0	16.0	63	9.0	8	16	270	0.0	1023.9	180	0.000	1.7
20100914 13:55	15.8	15.8	15.8	63	8.8	10	16	270	0.0	1023.8	149	0.000	1.4
20100914 14:00	15.7	15.7	15.7	65	9.2	10	18	270	0.0	1023.7	146	0.203	1.4
20100914 14:05	15.6	15.6	15.6	66	9.3	6	10	248	0.0	1023.8	131	0.000	1.3
20100914 14:10	15.7	15.7	15.7	67	9.6	6	14	270	0.0	1023.7	143	0.000	1.4
20100914 14:15	15.6	15.6	15.6	66	9.3	8	16	248	0.0	1023.7	173	0.000	1.6
20100914 14:20	15.7	15.7	15.7	67	9.6	8	14	270	0.0	1023.6	179	0.000	1.6
20100914 14:25	15.7	15.7	15.7	67	9.6	8	14	248	0.0	1023.6	168	0.000	1.5
20100914 14:30	15.7	15.7	15.7	67	9.6	6	11	270	0.0	1023.6	153	0.000	1.4
20100914 14:35	15.7	15.7	15.7	67	9.6	10	16	270	0.0	1023.7	151	0.000	1.3
20100914 14:40	15.7	15.7	15.7	67	9.6	8	14	270	0.0	1023.7	161	0.000	1.4
20100914 14:45	15.7	15.7	15.7	67	9.6	6	11	270	0.0	1023.6	175	0.000	1.5
20100914 14:50	15.8	15.8	15.8	68	9.9	6	13	270	0.0	1023.5	185	0.000	1.6
20100914 14:55	15.8	15.8	15.8	67	9.7	6	11	248	0.0	1023.3	187	0.000	1.6
20100914 15:00	15.8	15.8	15.8	67	9.7	6	11	270	0.0	1023.1	190	0.127	1.6
20100914 15:05	15.9	15.9	15.9	66	9.5	6	14	270	0.0	1023.2	191	0.000	1.6
20100914 15:10	15.9	15.9	15.9	67	9.8	5	11	270	0.0	1023.1	195	0.000	1.6
20100914 15:15	15.9	15.9	15.9	65	9.4	8	16	248	0.0	1023.1	198	0.000	1.6
20100914 15:20	16.0	16.0	16.0	65	9.4	8	14	248	0.0	1023.0	199	0.000	1.6
20100914 15:25	16.0	16.0	16.0	66	9.6	6	14	248	0.0	1023.0	201	0.000	1.6
20100914 15:30	16.1	16.1	16.1	66	9.7	6	14	248	0.0	1023.0	167	0.000	1.3
20100914 15:35	16.1	16.1	16.1	64	9.2	6	14	270	0.0	1022.9	143	0.000	1.1
20100914 15:40	16.1	16.1	16.1	65	9.5	6	14	248	0.0	1022.9	164	0.000	1.3
20100914 15:45	16.1	16.1	16.1	65	9.5	8	18	248	0.0	1022.9	156	0.000	1.2
20100914 15:50	16.0	16.0	16.0	64	9.2	10	18	248	0.0	1022.9	149	0.000	1.2
20100914 15:55	16.0	16.0	16.0	62	8.7	10	18	270	0.0	1022.8	133	0.000	1.0
20100914 16:00	15.9	15.9	15.9	63	8.9	8	14	270	0.0	1022.8	139	0.127	1.0
20100914 16:05	15.9	15.9	15.9	63	8.9	6	11	270	0.0	1022.9	132	0.000	1.0
20100914 16:10	15.8	15.8	15.8	63	8.8	8	18	270	0.0	1022.8	113	0.000	0.8
20100914 16:15	15.8	15.8	15.8	64	9.0	6	11	270	0.0	1022.8	118	0.000	0.8
20100914 16:20	15.8	15.8	15.8	64	9.0	5	10	270	0.0	1022.8	129	0.000	0.9
20100914 16:25	15.8	15.8	15.8	63	8.8	8	14	270	0.0	1022.7	156	0.000	1.1
20100914 16:30	15.8	15.8	15.8	63	8.8	6	11	270	0.0	1022.7	171	0.000	1.1
20100914 16:35	15.9	15.9	15.9	63	8.9	6	14	248	0.0	1022.6	176	0.000	1.1
20100914 16:40	15.9	15.9	15.9	63	8.9	6	11	270	0.0	1022.4	168	0.000	1.0
20100914 16:45	15.9	15.9	15.9	64	9.1	6	11	270	0.0	1022.4	165	0.000	1.0
20100914 16:50	15.9	15.9	15.9	64	9.1	5	11	270	0.0	1022.2	164	0.000	1.0
20100914 16:55	15.9	15.9	15.9	65	9.3	5	10	270	0.0	1022.1	167	0.000	1.0
20100914 17:00	15.9	15.9	15.9	65	9.3	5	8	248	0.0	1022.1	167	0.127	0.9
20100914 17:05	15.9	15.9	15.9	66	9.5	5	10	248	0.0	1022.0	150	0.000	0.9
20100914 17:10	15.9	15.9	15.9	66	9.6	5	8	248	0.0	1022.0	115	0.000	0.6
20100914 17:15	16.0	16.0	16.0	67	9.9	2	6	248	0.0	1021.9	97	0.000	0.5
20100914 17:20	16.0	16.0	16.0	65	9.4	6	10	225	0.0	1021.8	110	0.000	0.6
20100914 17:25	16.0	16.0	16.0	65	9.4	6	10	225	0.0	1021.8	112	0.000	0.6
20100914 17:30	15.9	15.9	15.9	65	9.4	6	11	225	0.0	1021.7	105	0.000	0.5
20100914 17:35	15.9	15.9	15.9	66	9.6	6	11	248	0.0	1021.7	92	0.000	0.3
20100914 17:40	15.9	15.9	15.9	66	9.5	5	8	225	0.0	1021.6	82	0.000	0.0
20100914 17:45	15.8	15.8	15.8	66	9.5	3	8	225	0.0	1021.6	77	0.000	0.0
20100914 17:50	15.8	15.8	15.8	66	9.4	5	8	225	0.0	1021.6	74	0.000	0.0
20100914 17:55	15.8	15.8	15.8	67	9.7	5	10	225	0.0	1021.6	70	0.000	0.0
20100914 18:00	15.7	15.7	15.7	69	10.0	3	8	225	0.0	1021.4	67	0.076	0.0
20100914 18:05	15.7	15.7	15.7	69	10.0	3	6	225	0.0	1021.4	62	0.000	0.0
20100914 18:10	15.6	15.6	15.6	70	10.2	3	6	225	0.0	1021.4	57	0.000	0.0
20100914 18:15	15.6	15.6	15.6	70	10.1	3	8	225	0.0	1021.4	52	0.000	0.0
20100914 18:20	15.6	15.6	15.6	71	10.3	3	8	225	0.0	1021.3	45	0.000	0.0
20100914 18:25	15.5	15.5	15.5	71	10.3	2	5	225	0.0	1021.3	41	0.000	0.0
20100914 18:30	15.5	15.5	15.5	72	10.5	3	8	225	0.0	1021.3	43	0.000	0.0
20100914 18:35	15.4	15.4	15.4	72	10.4	3	6	225	0.0	1021.2	40	0.000	0.0
20100914 18:40	15.4	15.4	15.4	72	10.4	2	5	225	0.0	1021.2	33	0.000	0.0
20100914 18:45	15.3	15.3	15.3	73	10.5	3	6	225	0.0	1021.2	25	0.000	0.0
20100914 18:50	15.3	15.3	15.3	73	10.5	3	8	225	0.0	1021.1	18	0.000	0.0
20100914 18:55	15.2	15.2	15.2	73	10.4	6	8	202	0.0	1020.9	16	0.000	0.0
20100914 19:00	15.2	15.2	15.2	74	10.6	3	8	202	0.0	1021.0	14	0.025	0.0
20100914 19:05	15.1	15.1	15.1	74	10.5	3	8	202	0.0	1020.9	11	0.000	0.0
20100914 19:10	15.0	15.0	15.0	75	10.6	3	8	202	0.0	1020.9	8	0.000	0.0
20100914 19:15	15.0	15.0	15.0	75	10.6	3	8	202	0.0	1020.9	7	0.000	0.0
20100914 19:20	15.0	15.0	15.0	76	10.8	5	10	202	0.0	1020.9	2	0.000	0.0
20100914 19:25	15.0	15.0	15.0	76	10.8	3	8	202	0.0	1020.7	0	0.000	0.0
20100914 19:30	15.0	15.0	15.0	77	11.0	3	8	202	0.0	1020.7	0	0.000	0.0
20100914 19:35	15.0	15.0	15.0	77	11.0	2	8	202	0.0	1020.7	0	0.000	0.0
20100914 19:40	14.9	14.9	14.9	78	11.1	3	8	202	0.0	1020.7	0	0.000	0.0
20100914 19:45	14.8	14.8	14.8	78	11.0	3	6	202	0.0	1020.7	0	0.000	0.0
20100914 19:50	14.7	14.7	14.7	79	11.1	2	5	202	0.0	1020.6	0	0.000	0.0
20100914 19:55	14.6	14.6	14.6	79	11.0	0	5	202	0.0	1020.8	0	0.000	0.0
20100914 20:00	14.6	14.6	14.6	80	11.1	0	5	202	0.0	1020.7	0	0.025	0.0
20100914 20:05	14.4	14.4	14.4	80	11.0	0	5	202	0.0	1020.5	0	0.000	0.0
20100914 20:10	14.4	14.4	14.4	81	11.2	2	8	202	0.0	1020.6	0	0.000	0.0
20100914 20:15	14.3	14.3	14.3	81	11.1	0	3	202	0.0	1020.7	0	0.000	0.0
20100914 20:20	14.3	14.3	14.3	82	11.2	3	6	202	0.0	1020.6	0	0.000	0.0
20100914 20:25	14.2	14.2	14.2	82	11.2	5	8	202	0.0	1020.6	0	0.000	0.0
20100914 20:30	14.2	14.2	14.2	82	11.1	5	8	202	0.0	1020.6	0	0.000	0.0
20100914 20:35	14.2	14.2	14.2	83	11.3	5	8	202	0.0	1020.5	0	0.000	0.0
20100914 20:40	14.1	14.1	14.1	83	11.3	3	8	180	0.0	1020.6	0	0.000	0.0
20100914 20:45	14.1	14.1	14.1	83	11.2	5	10	202	0.0	1020.5	0	0.000	0.0
20100914 20:50	14.1	14.1	14.1	83	11.2	5	10	202	0.0	1020.4	0	0.000	0.0
20100914 20:55	14.1	14.1	14.1	83	11.2	5	10	225	0.0	1020.5	0	0.000	0.0
20100914 21:00	14.1	14.1	14.1	83	11.2	6	11	202	0.0	1020.5	0	0.025	0.0
20100914 21:05	14.0	14.0	14.0	83	11.2	5	10	225	0.0	1020.1	0	0.000	0.0
20100914 21:10	13.9	13.9	13.9	83	11.1	5	8	202	0.0	1020.1	0	0.000	0.0
20100914 21:15	13.9	13.9	13.9	84	11.3	3	8	202	0.0	1020.1	0	0.000	0.0
20100914 21:20	13.9	13.9	13.9	84	11.3	3	8	202	0.0	1020.0	0	0.000	0.0
20100914 21:25	13.9	13.9	13.9	84	11.2	3	8	202	0.0	1020.0	0	0.000	0.0
20100914 21:30	13.9	13.9	13.9	84	11.2	3	8	202	0.0	1020.1	0	0.000	0.0
20100914 21:35	13.9	13.9	13.9	84	11.2	3	8	202	0.0	1019.9	0	0.000	0.0
20100914 21:40	13.9	13.9	13.9	83	11.0	3	8	180	0.0	1019.9	0	0.000	0.0
20100914 21:45	13.9	13.9	13.9	83	11.1	3	8	202	0.0	1019.8	0	0.000	0.0
20100914 21:50	13.9	13.9	13.9	83	11.0	5	8	202	0.0	1019.8	0	0.000	0.0
20100914 21:55	13.8	13.8	13.8	83	11.0	3	8	202	0.0	1019.8	0	0.000	0.0
20100914 22:00	13.8	13.8	13.8	83	10.9	5	8	202	0.0	1019.8	0	0.025	0.0
20100914 22:05	13.7	13.7	13.7	83	10.9	3	6	225	0.0	1019.5	0	0.000	0.0
20100914 22:10	13.7	13.7	13.7	83	10.8	2	5	225	0.0	1019.6	0	0.000	0.0
20100914 22:15	13.6	13.6	13.6	83	10.7	2	5	225	0.0	1019.7	0	0.000	0.0
20100914 22:20	13.4	13.4	13.4	84	10.8	5	8	225	0.0	1019.6	0	0.000	0.0
20100914 22:25	13.4	13.4	13.4	84	10.7	3	8	225	0.0	1019.7	0	0.000	0.0
20100914 22:30	13.3	13.3	13.3	84	10.6	5	8	225	0.0	1019.7	0	0.000	0.0
20100914 22:35	13.3	13.3	13.3	84	10.6	3	8	202	0.0	1019.6	0	0.000	0.0
20100914 22:40	13.2	13.2	13.2	84	10.6	3	8	202	0.0	1019.5	0	0.000	0.0
20100914 22:45	13.2	13.2	13.2	84	10.6	5	8	202	0.0	1019.6	0	0.000	0.0
20100914 22:50	13.2	13.2	13.2	83	10.3	5	8	202	0.0	1019.6	0	0.000	0.0
20100914 22:55	13.2	13.2	13.2	83	10.3	5	10	202	0.0	1019.5	0	0.000	0.0
20100914 23:00	13.1	13.1	13.1	83	10.3	6	10	202	0.0	1019.3	0	0.025	0.0
20100914 23:05	13.2	13.2	13.2	83	10.3	5	8	225	0.0	1019.3	0	0.000	0.0
20100914 23:10	13.2	13.2	13.2	83	10.3	5	8	202	0.0	1019.3	0	0.000	0.0
20100914 23:15	13.2	13.2	13.2	83	10.3	5	8	225	0.0	1019.3	0	0.000	0.0
20100914 23:20	13.2	13.2	13.2	83	10.4	5	8	202	0.0	1019.2	0	0.000	0.0
20100914 23:25	13.2	13.2	13.2	83	10.4	3	8	202	0.0	1019.2	0	0.000	0.0
20100914 23:30	13.2	13.2	13.2	83	10.3	3	6	202	0.0	1019.2	0	0.000	0.0
20100914 23:35	13.2	13.2	13.2	83	10.3	3	8	202	0.0	1019.2	0	0.000	0.0
20100914 23:40	13.2	13.2	13.2	83	10.3	5	8	202	0.0	1019.0	0	0.000	0.0
20100914 23:45	13.2	13.2	13.2	83	10.3	2	6	202	0.0	1019.2	0	0.000	0.0
20100914 23:50	13.1	13.1	13.1	83	10.3	5	10	202	0.0	1019.0	0	0.000	0.0
20100914 23:55	13.2	13.2	13.2	83	10.3	5	8	202	0.0	1019.0	0	0.000	0.0



Please note the license to use and transfer of this data:
http://creativecommons.org/licenses/by-nc-sa/3.0/deed.en

Bitte beachten sie die Lizenz zur Verwertung und Weitergabe der Daten:
http://creativecommons.org/licenses/by-nc-sa/3.0/deed.de

zurück zur Übersicht der Archivdaten (Monats und Tagesdaten)

Cookies helfen bei der Bereitstellung von Inhalten. Durch die Nutzung dieser Seiten erklärst du dich damit einverstanden, dass Cookies auf deinem Rechner gespeichert werden. Weitere Information